Location: Appeville
(49.3218°N, 1.3427°W)
Time: 12:30:10
(UTC+00:00)

SJ-12 - Pass Details

Date: 08 December 2019
Orbit: 568 x 586 km, 97.6° (Epoch: 19 January)

Event Time Altitude Azimuth Distance (km) Brightness Sun altitude
Rises 05:48:37 0° 10° (N) 2,822 7.4 -18.3°
Reaches altitude 10° 05:50:48 10° 6° (N) 1,915 6.5 -18.0°
Maximum altitude 05:54:53 58° 288° (WNW) 681 3.9 -17.3°
Drops below altitude 10° 05:58:54 10° 209° (SSW) 1,889 6.4 -16.7°
Sets 06:01:04 0° 205° (SSW) 2,780 7.3 -16.4°
